Time,TemperatureF,DewpointF,PressureIn,WindDirection,WindDirectionDegrees,WindSpeedMPH,WindSpeedGustMPH,Humidity,HourlyPrecipIn,Conditions,Clouds,dailyrainin,SoftwareType,DateUTC
2013-02-13 00:00:00,40.1,22.0,27.34,WSW,254,0.0,0.0,48,0.04,,---,0.00,VWS V14.01,2013-02-13 05:00:00,
2013-02-13 00:05:00,40.3,22.2,27.34,SSW,196,3.6,3.6,48,0.04,,---,0.00,VWS V14.01,2013-02-13 05:05:00,
2013-02-13 00:10:00,40.3,22.2,27.32,ESE,121,0.0,2.2,48,0.04,,---,0.00,VWS V14.01,2013-02-13 05:10:00,
2013-02-13 00:15:00,40.3,22.2,27.32,SSW,212,3.1,3.1,48,0.12,,---,0.08,VWS V14.01,2013-02-13 05:15:00,
2013-02-13 00:20:00,40.1,22.0,27.32,SW,230,0.0,0.0,48,0.12,,---,0.08,VWS V14.01,2013-02-13 05:20:00,
2013-02-13 00:25:00,39.9,21.8,27.32,SW,233,0.0,0.0,48,0.12,,---,0.08,VWS V14.01,2013-02-13 05:25:00,
2013-02-13 00:30:00,39.9,21.8,27.32,SW,233,0.0,0.0,48,0.16,,---,0.12,VWS V14.01,2013-02-13 05:30:00,
2013-02-13 00:35:00,39.7,21.7,27.32,SW,235,2.2,2.2,48,0.16,,---,0.12,VWS V14.01,2013-02-13 05:35:00,
2013-02-13 00:40:00,39.6,22.0,27.32,SW,235,0.0,0.0,49,0.16,,---,0.12,VWS V14.01,2013-02-13 05:40:00,
2013-02-13 00:45:00,39.4,21.8,27.32,SW,235,0.0,0.0,49,0.16,,---,0.12,VWS V14.01,2013-02-13 05:45:00,
2013-02-13 00:50:00,39.4,21.8,27.32,SW,217,0.0,0.0,49,0.20,,---,0.16,VWS V14.01,2013-02-13 05:50:00,
2013-02-13 00:55:00,39.4,21.8,27.32,ENE,73,2.7,2.7,49,0.16,,---,0.16,VWS V14.01,2013-02-13 05:55:00,
2013-02-13 01:00:00,39.2,21.7,27.32,WNW,285,2.7,3.6,49,0.20,,---,0.20,VWS V14.01,2013-02-13 06:00:00,
2013-02-13 01:05:00,39.0,21.5,27.29,WNW,289,0.0,2.2,49,0.20,,---,0.20,VWS V14.01,2013-02-13 06:05:00,
2013-02-13 01:10:00,39.0,22.0,27.29,SE,134,2.7,2.7,50,0.20,,---,0.20,VWS V14.01,2013-02-13 06:10:00,
2013-02-13 01:15:00,39.2,21.7,27.29,ESE,121,0.0,0.0,49,0.12,,---,0.20,VWS V14.01,2013-02-13 06:15:00,
2013-02-13 01:20:00,39.0,22.0,27.29,ESE,121,0.0,0.0,50,0.12,,---,0.20,VWS V14.01,2013-02-13 06:20:00,
2013-02-13 01:25:00,39.0,22.0,27.29,ESE,121,0.0,0.0,50,0.12,,---,0.20,VWS V14.01,2013-02-13 06:25:00,
2013-02-13 01:30:00,39.0,22.0,27.29,ESE,121,0.0,0.0,50,0.08,,---,0.20,VWS V14.01,2013-02-13 06:30:00,
2013-02-13 01:35:00,39.2,22.1,27.29,ESE,121,0.0,0.0,50,0.08,,---,0.20,VWS V14.01,2013-02-13 06:35:00,
2013-02-13 01:40:00,39.2,22.1,27.29,ESE,121,0.0,0.0,50,0.08,,---,0.20,VWS V14.01,2013-02-13 06:40:00,
2013-02-13 01:45:00,39.2,22.1,27.29,ESE,121,0.0,0.0,50,0.08,,---,0.20,VWS V14.01,2013-02-13 06:45:00,
2013-02-13 01:50:00,39.2,22.1,27.29,ESE,121,0.0,0.0,50,0.04,,---,0.20,VWS V14.01,2013-02-13 06:50:00,
2013-02-13 01:55:00,39.4,22.3,27.29,ESE,121,0.0,0.0,50,0.04,,---,0.20,VWS V14.01,2013-02-13 06:55:00,
2013-02-13 02:00:00,39.4,22.8,27.29,ESE,121,0.0,0.0,51,0.00,,---,0.20,VWS V14.01,2013-02-13 07:00:00,
2013-02-13 02:05:00,39.4,22.8,27.26,ESE,121,0.0,0.0,51,0.00,,---,0.20,VWS V14.01,2013-02-13 07:05:00,
2013-02-13 02:10:00,39.4,22.8,27.26,ESE,121,0.0,0.0,51,0.00,,---,0.20,VWS V14.01,2013-02-13 07:10:00,
2013-02-13 02:15:00,39.4,22.8,27.26,ESE,121,0.0,0.0,51,0.00,,---,0.20,VWS V14.01,2013-02-13 07:15:00,
2013-02-13 02:20:00,39.4,22.8,27.26,ESE,121,0.0,0.0,51,0.00,,---,0.20,VWS V14.01,2013-02-13 07:20:00,
2013-02-13 02:25:00,39.4,22.8,27.26,ESE,121,0.0,0.0,51,0.00,,---,0.20,VWS V14.01,2013-02-13 07:25:00,
2013-02-13 02:30:00,39.4,22.8,27.26,ESE,121,0.0,0.0,51,0.00,,---,0.20,VWS V14.01,2013-02-13 07:30:00,
2013-02-13 02:35:00,39.4,22.8,27.26,ESE,121,0.0,0.0,51,0.00,,---,0.20,VWS V14.01,2013-02-13 07:35:00,
2013-02-13 02:40:00,39.4,22.8,27.26,ESE,121,0.0,0.0,51,0.00,,---,0.20,VWS V14.01,2013-02-13 07:40:00,
2013-02-13 02:45:00,39.4,22.8,27.26,ESE,121,0.0,0.0,51,0.00,,---,0.20,VWS V14.01,2013-02-13 07:45:00,
2013-02-13 02:50:00,39.7,23.6,27.26,ESE,121,0.0,0.0,52,0.00,,---,0.20,VWS V14.01,2013-02-13 07:50:00,
2013-02-13 02:55:00,39.7,23.1,27.26,ESE,121,0.0,0.0,51,0.00,,---,0.20,VWS V14.01,2013-02-13 07:55:00,
2013-02-13 03:00:00,39.7,23.6,27.26,ESE,121,2.2,2.7,52,0.00,,---,0.20,VWS V14.01,2013-02-13 08:00:00,
2013-02-13 03:05:00,39.7,23.6,27.23,ESE,121,0.0,0.0,52,0.00,,---,0.20,VWS V14.01,2013-02-13 08:05:00,
2013-02-13 03:10:00,39.7,23.6,27.23,ESE,121,0.0,0.0,52,0.00,,---,0.20,VWS V14.01,2013-02-13 08:10:00,
2013-02-13 03:15:00,39.6,23.4,27.23,ESE,121,0.0,0.0,52,0.00,,---,0.20,VWS V14.01,2013-02-13 08:15:00,
2013-02-13 03:20:00,39.4,23.2,27.23,NNE,20,2.7,3.6,52,0.00,,---,0.20,VWS V14.01,2013-02-13 08:20:00,
2013-02-13 03:25:00,39.4,23.2,27.23,North,0,0.0,0.0,52,0.00,,---,0.20,VWS V14.01,2013-02-13 08:25:00,
2013-02-13 03:30:00,39.4,23.2,27.23,NNE,20,0.0,0.0,52,0.00,,---,0.20,VWS V14.01,2013-02-13 08:30:00,
2013-02-13 03:35:00,39.4,23.2,27.23,NNE,26,0.0,0.0,52,0.00,,---,0.20,VWS V14.01,2013-02-13 08:35:00,
2013-02-13 03:40:00,39.4,23.2,27.23,ESE,110,0.0,0.0,52,0.00,,---,0.20,VWS V14.01,2013-02-13 08:40:00,
2013-02-13 03:45:00,39.4,23.7,27.23,SE,143,2.2,4.0,53,0.00,,---,0.20,VWS V14.01,2013-02-13 08:45:00,
2013-02-13 03:50:00,39.4,23.7,27.23,South,169,0.0,0.0,53,0.00,,---,0.20,VWS V14.01,2013-02-13 08:50:00,
2013-02-13 03:55:00,39.4,23.7,27.23,ESE,123,3.6,4.0,53,0.00,,---,0.20,VWS V14.01,2013-02-13 08:55:00,
2013-02-13 04:00:00,39.6,23.9,27.23,SE,135,3.1,3.1,53,0.00,,---,0.20,VWS V14.01,2013-02-13 09:00:00,
2013-02-13 04:05:00,39.7,24.0,27.23,SE,132,0.0,0.0,53,0.00,,---,0.20,VWS V14.01,2013-02-13 09:05:00,
2013-02-13 04:10:00,39.7,24.0,27.23,SE,138,0.0,0.0,53,0.00,,---,0.20,VWS V14.01,2013-02-13 09:10:00,
2013-02-13 04:15:00,39.7,24.0,27.23,SE,125,2.7,2.7,53,0.00,,---,0.20,VWS V14.01,2013-02-13 09:15:00,
2013-02-13 04:20:00,39.7,24.0,27.20,SSW,209,0.0,3.1,53,0.00,,---,0.20,VWS V14.01,2013-02-13 09:20:00,
2013-02-13 04:25:00,39.9,24.2,27.20,SSE,157,2.7,4.0,53,0.00,,---,0.20,VWS V14.01,2013-02-13 09:25:00,
2013-02-13 04:30:00,39.9,24.2,27.20,South,169,3.6,3.6,53,0.00,,---,0.20,VWS V14.01,2013-02-13 09:30:00,
2013-02-13 04:35:00,39.9,24.2,27.20,WSW,256,2.7,8.1,53,0.00,,---,0.20,VWS V14.01,2013-02-13 09:35:00,
2013-02-13 04:40:00,39.9,24.2,27.20,SE,139,4.9,4.9,53,0.00,,---,0.20,VWS V14.01,2013-02-13 09:40:00,
2013-02-13 04:45:00,39.9,24.2,27.20,SSE,155,2.7,4.0,53,0.00,,---,0.20,VWS V14.01,2013-02-13 09:45:00,
2013-02-13 04:50:00,39.9,23.7,27.20,SSW,209,3.1,3.1,52,0.00,,---,0.20,VWS V14.01,2013-02-13 09:50:00,
2013-02-13 04:55:00,39.9,23.7,27.20,SSW,199,2.7,6.3,52,0.00,,---,0.20,VWS V14.01,2013-02-13 09:55:00,
2013-02-13 05:00:00,39.9,23.7,27.20,SSE,168,2.2,4.9,52,0.00,,---,0.04,VWS V14.01,2013-02-13 10:00:00,
2013-02-13 05:05:00,39.9,23.7,27.20,SSE,161,3.6,4.9,52,0.00,,---,0.20,VWS V14.01,2013-02-13 10:05:00,
2013-02-13 05:10:00,39.9,23.7,27.20,SE,126,2.7,3.6,52,0.00,,---,0.20,VWS V14.01,2013-02-13 10:10:00,
2013-02-13 05:15:00,39.9,23.3,27.20,SE,131,4.0,4.0,51,0.00,,---,0.20,VWS V14.01,2013-02-13 10:15:00,
2013-02-13 05:19:00,39.7,23.1,27.20,SSE,147,3.1,4.0,51,0.00,,---,0.20,VWS V14.01,2013-02-13 10:19:00,
2013-02-13 05:24:00,39.7,23.1,27.20,SE,128,5.4,6.3,51,0.00,,---,0.20,VWS V14.01,2013-02-13 10:24:00,
2013-02-13 05:29:00,39.7,23.1,27.20,SE,130,3.1,6.3,51,0.00,,---,0.20,VWS V14.01,2013-02-13 10:29:00,
2013-02-13 05:34:00,39.7,23.1,27.20,SW,218,4.0,4.9,51,0.00,,---,0.20,VWS V14.01,2013-02-13 10:34:00,
2013-02-13 05:39:00,39.7,23.1,27.20,SE,141,3.6,5.8,51,0.00,,---,0.20,VWS V14.01,2013-02-13 10:39:00,
2013-02-13 05:44:00,39.7,23.1,27.20,ESE,112,6.3,6.3,51,0.00,,---,0.20,VWS V14.01,2013-02-13 10:44:00,
2013-02-13 05:49:00,39.7,23.1,27.17,SW,220,3.6,5.8,51,0.00,,---,0.20,VWS V14.01,2013-02-13 10:49:00,
2013-02-13 05:54:00,39.7,23.1,27.17,SE,141,3.1,3.1,51,0.00,,---,0.20,VWS V14.01,2013-02-13 10:54:00,
2013-02-13 05:59:00,39.7,23.1,27.17,SE,143,2.7,6.3,51,0.00,,---,0.20,VWS V14.01,2013-02-13 10:59:00,
2013-02-13 06:04:00,39.7,23.1,27.17,SE,137,5.4,6.3,51,0.00,,---,0.20,VWS V14.01,2013-02-13 11:04:00,
2013-02-13 06:09:00,39.7,23.1,27.20,SSE,161,3.1,3.1,51,0.00,,---,0.20,VWS V14.01,2013-02-13 11:09:00,
2013-02-13 06:14:00,39.7,23.1,27.20,SE,124,2.7,6.3,51,0.00,,---,0.20,VWS V14.01,2013-02-13 11:14:00,
2013-02-13 06:19:00,39.7,23.1,27.20,SE,132,6.3,6.3,51,0.00,,---,0.20,VWS V14.01,2013-02-13 11:19:00,
2013-02-13 06:24:00,39.7,23.1,27.17,SSE,160,3.1,3.6,51,0.00,,---,0.20,VWS V14.01,2013-02-13 11:24:00,
2013-02-13 06:30:00,39.7,23.1,27.17,ESE,108,2.7,4.9,51,0.00,,---,0.20,VWS V14.01,2013-02-13 11:30:00,
2013-02-13 06:34:00,39.7,23.1,27.17,ESE,113,6.3,6.3,51,0.00,,---,0.20,VWS V14.01,2013-02-13 11:34:00,
2013-02-13 06:39:00,39.7,23.1,27.17,SW,230,2.7,4.9,51,0.00,,---,0.20,VWS V14.01,2013-02-13 11:39:00,
2013-02-13 06:44:00,39.7,23.1,27.17,SE,140,4.0,5.4,51,0.00,,---,0.20,VWS V14.01,2013-02-13 11:44:00,
2013-02-13 06:49:00,39.7,23.1,27.17,SE,126,5.8,5.8,51,0.00,,---,0.20,VWS V14.01,2013-02-13 11:49:00,
2013-02-13 06:54:00,39.7,23.1,27.17,SE,141,3.1,4.0,51,0.00,,---,0.20,VWS V14.01,2013-02-13 11:54:00,
2013-02-13 06:59:00,39.7,23.1,27.17,SSE,155,3.1,4.0,51,0.00,,---,0.20,VWS V14.01,2013-02-13 11:59:00,
2013-02-13 07:04:00,39.7,23.1,27.17,SSE,154,4.0,4.0,51,0.00,,---,0.20,VWS V14.01,2013-02-13 12:04:00,
2013-02-13 07:09:00,39.7,23.1,27.17,SE,138,5.4,5.4,51,0.00,,---,0.20,VWS V14.01,2013-02-13 12:09:00,
2013-02-13 07:14:00,39.7,23.1,27.17,SSW,195,4.0,6.3,51,0.00,,---,0.20,VWS V14.01,2013-02-13 12:14:00,
2013-02-13 07:19:00,39.6,22.9,27.20,SW,228,3.6,5.4,51,0.00,,---,0.20,VWS V14.01,2013-02-13 12:19:00,
2013-02-13 07:24:00,39.6,23.4,27.20,SE,144,6.3,6.3,52,0.00,,---,0.20,VWS V14.01,2013-02-13 12:24:00,
2013-02-13 07:29:00,39.6,23.4,27.20,West,260,3.1,4.0,52,0.00,,---,0.20,VWS V14.01,2013-02-13 12:29:00,
2013-02-13 07:34:00,39.6,23.4,27.20,ESE,111,2.7,2.7,52,0.00,,---,0.20,VWS V14.01,2013-02-13 12:34:00,
2013-02-13 07:39:00,39.7,23.6,27.17,WSW,239,3.6,4.0,52,0.00,,---,0.20,VWS V14.01,2013-02-13 12:39:00,
2013-02-13 07:44:00,39.7,23.6,27.17,WSW,244,3.6,3.6,52,0.00,,---,0.20,VWS V14.01,2013-02-13 12:44:00,
2013-02-13 07:49:00,39.7,23.6,27.17,SE,146,3.1,4.0,52,0.00,,---,0.20,VWS V14.01,2013-02-13 12:49:00,
2013-02-13 07:54:00,39.7,23.6,27.20,SE,126,2.2,3.6,52,0.00,,---,0.20,VWS V14.01,2013-02-13 12:54:00,
2013-02-13 07:59:00,39.7,23.6,27.20,SE,131,2.7,3.1,52,0.00,,---,0.20,VWS V14.01,2013-02-13 12:59:00,
2013-02-13 08:04:00,39.9,24.2,27.20,ESE,122,2.7,5.4,53,0.00,,---,0.20,VWS V14.01,2013-02-13 13:04:00,
2013-02-13 08:09:00,39.9,24.2,27.17,South,185,3.6,3.6,53,0.00,,---,0.20,VWS V14.01,2013-02-13 13:09:00,
2013-02-13 08:14:00,39.9,24.2,27.17,SE,133,2.7,4.0,53,0.00,,---,0.20,VWS V14.01,2013-02-13 13:14:00,
2013-02-13 08:19:00,39.9,24.2,27.17,SE,129,2.2,2.2,53,0.00,,---,0.20,VWS V14.01,2013-02-13 13:19:00,
2013-02-13 08:24:00,40.1,24.4,27.17,SE,127,0.0,2.2,53,0.00,,---,0.20,VWS V14.01,2013-02-13 13:24:00,
2013-02-13 08:29:00,40.1,24.4,27.17,SSE,163,0.0,2.7,53,0.00,,---,0.20,VWS V14.01,2013-02-13 13:29:00,
2013-02-13 08:34:00,40.1,24.4,27.17,ENE,68,0.0,0.0,53,0.00,,---,0.20,VWS V14.01,2013-02-13 13:34:00,
2013-02-13 08:39:00,40.1,24.4,27.17,SSW,197,0.0,3.6,53,0.00,,---,0.20,VWS V14.01,2013-02-13 13:39:00,
2013-02-13 08:44:00,40.3,24.5,27.17,SSE,150,2.2,2.2,53,0.00,,---,0.20,VWS V14.01,2013-02-13 13:44:00,
2013-02-13 08:49:00,40.3,25.0,27.17,SSE,147,0.0,2.2,54,0.00,,---,0.20,VWS V14.01,2013-02-13 13:49:00,
2013-02-13 08:54:00,40.3,25.0,27.17,SE,128,2.7,2.7,54,0.00,,---,0.20,VWS V14.01,2013-02-13 13:54:00,
2013-02-13 08:59:00,40.5,25.1,27.17,South,187,2.7,4.9,54,0.00,,---,0.20,VWS V14.01,2013-02-13 13:59:00,
2013-02-13 09:04:00,40.5,25.1,27.17,NNW,327,0.0,3.1,54,0.00,,---,0.20,VWS V14.01,2013-02-13 14:04:00,
2013-02-13 09:09:00,40.5,25.1,27.17,ENE,58,3.6,3.6,54,0.00,,---,0.20,VWS V14.01,2013-02-13 14:09:00,
2013-02-13 09:14:00,40.5,25.1,27.17,East,81,2.7,2.7,54,0.00,,---,0.20,VWS V14.01,2013-02-13 14:14:00,
2013-02-13 09:19:00,40.5,25.1,27.17,ENE,65,2.7,2.7,54,0.00,,---,0.20,VWS V14.01,2013-02-13 14:19:00,
2013-02-13 09:24:00,40.5,25.1,27.17,East,90,0.0,2.7,54,0.00,,---,0.20,VWS V14.01,2013-02-13 14:24:00,
2013-02-13 09:29:00,40.3,25.0,27.17,NE,53,0.0,4.0,54,0.00,,---,0.20,VWS V14.01,2013-02-13 14:29:00,
2013-02-13 09:34:00,40.3,25.0,27.17,NE,39,0.0,4.0,54,0.00,,---,0.20,VWS V14.01,2013-02-13 14:34:00,
2013-02-13 09:39:00,40.5,25.1,27.17,East,84,2.2,2.2,54,0.00,,---,0.20,VWS V14.01,2013-02-13 14:39:00,
2013-02-13 09:44:00,40.5,25.6,27.17,NE,41,2.7,2.7,55,0.00,,---,0.20,VWS V14.01,2013-02-13 14:44:00,
2013-02-13 09:49:00,40.5,25.6,27.17,ESE,105,0.0,2.2,55,0.00,,---,0.20,VWS V14.01,2013-02-13 14:49:00,
2013-02-13 09:54:00,40.6,25.8,27.17,NE,51,2.7,4.0,55,0.00,,---,0.20,VWS V14.01,2013-02-13 14:54:00,
2013-02-13 09:59:00,40.6,25.8,27.17,NNE,15,2.7,2.7,55,0.00,,---,0.20,VWS V14.01,2013-02-13 14:59:00,
2013-02-13 10:04:00,40.6,25.8,27.17,East,89,2.7,3.1,55,0.00,,---,0.20,VWS V14.01,2013-02-13 15:04:00,
2013-02-13 10:09:00,40.6,25.8,27.17,SSE,164,2.7,2.7,55,0.00,,---,0.20,VWS V14.01,2013-02-13 15:09:00,
2013-02-13 10:14:00,40.8,26.4,27.17,SE,131,2.2,6.3,56,0.00,,---,0.20,VWS V14.01,2013-02-13 15:14:00,
2013-02-13 10:19:00,41.0,26.1,27.17,West,264,2.7,2.7,55,0.00,,---,0.20,VWS V14.01,2013-02-13 15:19:00,
2013-02-13 10:24:00,41.0,26.1,27.14,SE,131,4.0,4.0,55,0.00,,---,0.20,VWS V14.01,2013-02-13 15:24:00,
2013-02-13 10:29:00,41.0,26.1,27.14,ESE,113,0.0,0.0,55,0.00,,---,0.20,VWS V14.01,2013-02-13 15:29:00,
2013-02-13 10:34:00,41.0,26.5,27.14,ESE,113,2.7,3.1,56,0.00,,---,0.20,VWS V14.01,2013-02-13 15:34:00,
2013-02-13 10:39:00,41.0,26.5,27.14,NE,52,2.2,2.2,56,0.00,,---,0.20,VWS V14.01,2013-02-13 15:39:00,
2013-02-13 10:44:00,41.0,26.5,27.14,ESE,102,3.1,3.1,56,0.00,,---,0.20,VWS V14.01,2013-02-13 15:44:00,
2013-02-13 10:49:00,41.2,26.7,27.14,ENE,63,3.1,3.1,56,0.00,,---,0.20,VWS V14.01,2013-02-13 15:49:00,
2013-02-13 10:54:00,41.2,26.7,27.14,East,84,0.0,2.7,56,0.00,,---,0.20,VWS V14.01,2013-02-13 15:54:00,
2013-02-13 10:59:00,41.5,27.5,27.14,SSE,147,0.0,0.0,57,0.00,,---,0.20,VWS V14.01,2013-02-13 15:59:00,
2013-02-13 11:04:00,41.9,28.2,27.14,ESE,111,2.7,3.6,58,0.00,,---,0.20,VWS V14.01,2013-02-13 16:04:00,
2013-02-13 11:09:00,42.3,28.5,27.14,SE,137,2.7,3.6,58,0.04,,---,0.24,VWS V14.01,2013-02-13 16:09:00,
2013-02-13 11:14:00,42.6,28.9,27.14,SE,145,3.6,4.9,58,0.04,,---,0.24,VWS V14.01,2013-02-13 16:14:00,
2013-02-13 11:19:00,42.6,28.5,27.14,ESE,115,5.4,5.8,57,0.04,,---,0.24,VWS V14.01,2013-02-13 16:19:00,
2013-02-13 11:24:00,42.6,28.5,27.14,SE,139,3.6,4.9,57,0.04,,---,0.24,VWS V14.01,2013-02-13 16:24:00,
2013-02-13 11:29:00,42.6,28.5,27.14,SE,143,3.6,3.6,57,0.04,,---,0.24,VWS V14.01,2013-02-13 16:29:00,
2013-02-13 11:34:00,42.8,28.6,27.14,SE,146,3.1,3.1,57,0.04,,---,0.24,VWS V14.01,2013-02-13 16:34:00,
2013-02-13 11:39:00,43.0,28.8,27.14,SSE,149,4.0,4.0,57,0.04,,---,0.24,VWS V14.01,2013-02-13 16:39:00,
2013-02-13 11:44:00,43.2,29.0,27.14,SE,145,4.9,4.9,57,0.04,,---,0.24,VWS V14.01,2013-02-13 16:44:00,
2013-02-13 11:49:00,43.5,29.7,27.14,SE,144,4.0,4.0,58,0.04,,---,0.24,VWS V14.01,2013-02-13 16:49:00,
2013-02-13 11:54:00,43.9,30.1,27.11,SSE,151,8.3,8.3,58,0.04,,---,0.24,VWS V14.01,2013-02-13 16:54:00,
2013-02-13 11:59:00,44.1,29.8,27.11,SE,144,5.4,5.4,57,0.04,,---,0.24,VWS V14.01,2013-02-13 16:59:00,
2013-02-13 12:04:00,44.2,30.0,27.11,SSW,206,3.6,3.6,57,0.04,,---,0.24,VWS V14.01,2013-02-13 17:04:00,
2013-02-13 12:09:00,44.6,30.3,27.11,SW,216,2.2,4.0,57,0.00,,---,0.24,VWS V14.01,2013-02-13 17:09:00,
2013-02-13 12:14:00,44.8,30.1,27.11,SE,142,4.9,4.9,56,0.00,,---,0.24,VWS V14.01,2013-02-13 17:14:00,
2013-02-13 12:19:00,45.1,30.4,27.11,SSE,155,5.8,5.8,56,0.00,,---,0.24,VWS V14.01,2013-02-13 17:19:00,
2013-02-13 12:24:00,45.3,30.1,27.11,South,191,3.6,3.6,55,0.00,,---,0.24,VWS V14.01,2013-02-13 17:24:00,
2013-02-13 12:29:00,45.3,29.7,27.11,SE,143,2.7,3.6,54,0.00,,---,0.24,VWS V14.01,2013-02-13 17:29:00,
2013-02-13 12:34:00,45.1,29.5,27.11,ESE,112,4.0,4.0,54,0.00,,---,0.24,VWS V14.01,2013-02-13 17:34:00,
2013-02-13 12:39:00,45.1,29.5,27.08,East,86,2.2,3.1,54,0.00,,---,0.24,VWS V14.01,2013-02-13 17:39:00,
2013-02-13 12:44:00,45.1,29.0,27.08,NE,55,2.2,3.6,53,0.00,,---,0.24,VWS V14.01,2013-02-13 17:44:00,
2013-02-13 12:49:00,45.0,28.4,27.08,NE,46,3.6,3.6,52,0.00,,---,0.24,VWS V14.01,2013-02-13 17:49:00,
2013-02-13 12:54:00,44.6,28.1,27.08,East,82,2.7,3.1,52,0.00,,---,0.24,VWS V14.01,2013-02-13 17:54:00,
2013-02-13 12:59:00,44.2,27.7,27.08,NE,39,3.1,4.0,52,0.00,,---,0.24,VWS V14.01,2013-02-13 17:59:00,
2013-02-13 13:04:00,43.7,26.8,27.08,East,87,4.0,4.0,51,0.00,,---,0.24,VWS V14.01,2013-02-13 18:04:00,
2013-02-13 13:09:00,43.5,27.1,27.08,ENE,65,2.7,3.1,52,0.00,,---,0.24,VWS V14.01,2013-02-13 18:09:00,
2013-02-13 13:14:00,43.5,27.1,27.08,East,96,2.2,2.2,52,0.00,,---,0.24,VWS V14.01,2013-02-13 18:14:00,
2013-02-13 13:19:00,43.7,27.2,27.08,East,96,0.0,0.0,52,0.00,,---,0.24,VWS V14.01,2013-02-13 18:19:00,
2013-02-13 13:24:00,43.9,27.9,27.08,East,99,0.0,0.0,53,0.00,,---,0.24,VWS V14.01,2013-02-13 18:24:00,
2013-02-13 13:29:00,44.1,28.0,27.08,East,97,0.0,0.0,53,0.00,,---,0.24,VWS V14.01,2013-02-13 18:29:00,
2013-02-13 13:34:00,44.4,28.4,27.08,East,100,0.0,0.0,53,0.00,,---,0.24,VWS V14.01,2013-02-13 18:34:00,
2013-02-13 13:39:00,44.8,28.7,27.08,East,100,0.0,0.0,53,0.00,,---,0.24,VWS V14.01,2013-02-13 18:39:00,
2013-02-13 13:44:00,45.0,28.9,27.08,East,100,0.0,0.0,53,0.00,,---,0.24,VWS V14.01,2013-02-13 18:44:00,
2013-02-13 13:49:00,45.1,29.0,27.08,East,101,0.0,2.7,53,0.00,,---,0.24,VWS V14.01,2013-02-13 18:49:00,
2013-02-13 13:54:00,45.5,29.8,27.08,ESE,104,0.0,0.0,54,0.00,,---,0.24,VWS V14.01,2013-02-13 18:54:00,
2013-02-13 13:59:00,45.9,29.7,27.08,ESE,104,0.0,0.0,53,0.00,,---,0.24,VWS V14.01,2013-02-13 18:59:00,
2013-02-13 14:04:00,46.0,29.9,27.08,ENE,60,2.7,2.7,53,0.00,,---,0.24,VWS V14.01,2013-02-13 19:04:00,
2013-02-13 14:09:00,46.0,29.9,27.08,SSW,196,0.0,0.0,53,0.00,,---,0.24,VWS V14.01,2013-02-13 19:09:00,
2013-02-13 14:14:00,46.4,30.2,27.08,NE,44,0.0,0.0,53,0.00,,---,0.24,VWS V14.01,2013-02-13 19:14:00,
2013-02-13 14:19:00,46.9,30.7,27.08,East,100,2.7,3.1,53,0.00,,---,0.24,VWS V14.01,2013-02-13 19:19:00,
2013-02-13 14:24:00,47.8,32.0,27.05,ENE,57,2.2,2.2,54,0.00,,---,0.24,VWS V14.01,2013-02-13 19:24:00,
2013-02-13 14:29:00,48.7,32.4,27.05,SW,225,0.0,0.0,53,0.00,,---,0.24,VWS V14.01,2013-02-13 19:29:00,
2013-02-13 14:34:00,49.6,33.2,27.05,SSE,167,4.0,4.0,53,0.00,,---,0.24,VWS V14.01,2013-02-13 19:34:00,
2013-02-13 14:39:00,50.5,33.1,27.05,ESE,105,2.7,3.6,51,0.00,,---,0.24,VWS V14.01,2013-02-13 19:39:00,
2013-02-13 14:44:00,51.6,28.1,27.05,West,270,4.0,5.4,40,0.00,,---,0.24,VWS V14.01,2013-02-13 19:44:00,
2013-02-13 14:49:00,52.5,26.4,27.05,North,8,2.7,6.3,36,0.00,,---,0.24,VWS V14.01,2013-02-13 19:49:00,
2013-02-13 14:54:00,54.0,-6.0,27.05,NW,305,9.6,9.6,8,0.00,,---,0.24,VWS V14.01,2013-02-13 19:54:00,
2013-02-13 14:59:00,54.0,-6.0,27.05,NNW,335,0.0,4.0,8,0.00,,---,0.24,VWS V14.01,2013-02-13 19:59:00,
2013-02-13 15:04:00,53.8,-6.2,27.05,WNW,287,5.4,8.7,8,0.00,,---,0.24,VWS V14.01,2013-02-13 20:04:00,
2013-02-13 15:09:00,53.2,-6.6,27.05,WSW,251,4.9,5.4,8,0.00,,---,0.24,VWS V14.01,2013-02-13 20:09:00,
2013-02-13 15:14:00,53.6,-6.3,27.05,West,268,4.5,5.4,8,0.00,,---,0.24,VWS V14.01,2013-02-13 20:14:00,
2013-02-13 15:19:00,54.1,-5.9,27.05,SSW,204,5.4,5.8,8,0.00,,---,0.24,VWS V14.01,2013-02-13 20:19:00,
2013-02-13 15:24:00,54.9,-5.3,27.05,NW,316,3.6,4.0,8,0.00,,---,0.24,VWS V14.01,2013-02-13 20:24:00,
2013-02-13 15:29:00,56.7,-6.8,27.05,West,262,5.4,8.1,7,0.00,,---,0.24,VWS V14.01,2013-02-13 20:29:00,
2013-02-13 15:34:00,56.8,-6.6,27.05,West,265,14.5,14.5,7,0.00,,---,0.24,VWS V14.01,2013-02-13 20:34:00,
2013-02-13 15:39:00,56.8,-6.6,27.05,SSW,209,7.6,10.5,7,0.00,,---,0.24,VWS V14.01,2013-02-13 20:39:00,
2013-02-13 15:44:00,56.3,-7.0,27.05,SW,222,6.3,8.7,7,0.00,,---,0.24,VWS V14.01,2013-02-13 20:44:00,
2013-02-13 15:49:00,55.9,-7.3,27.05,SSE,149,3.6,7.2,7,0.00,,---,0.24,VWS V14.01,2013-02-13 20:49:00,
2013-02-13 15:54:00,55.0,-5.2,27.05,SW,227,7.2,7.2,8,0.00,,---,0.24,VWS V14.01,2013-02-13 20:54:00,
2013-02-13 15:59:00,54.3,-5.8,27.05,SSE,167,5.4,5.8,8,0.00,,---,0.24,VWS V14.01,2013-02-13 20:59:00,
2013-02-13 16:04:00,54.5,-5.6,27.05,WNW,288,4.0,5.8,8,0.00,,---,0.24,VWS V14.01,2013-02-13 21:04:00,
2013-02-13 16:09:00,54.7,-5.5,27.08,SSW,205,4.0,7.2,8,0.00,,---,0.24,VWS V14.01,2013-02-13 21:09:00,
2013-02-13 16:14:00,55.0,-5.2,27.08,NNE,19,3.1,3.1,8,0.00,,---,0.24,VWS V14.01,2013-02-13 21:14:00,
2013-02-13 16:19:00,55.2,-5.1,27.08,SSE,154,3.6,3.6,8,0.00,,---,0.24,VWS V14.01,2013-02-13 21:19:00,
2013-02-13 16:24:00,54.9,-5.3,27.08,WNW,298,4.0,6.3,8,0.00,,---,0.24,VWS V14.01,2013-02-13 21:24:00,
2013-02-13 16:29:00,53.6,-6.3,27.08,West,271,5.4,5.8,8,0.00,,---,0.24,VWS V14.01,2013-02-13 21:29:00,
2013-02-13 16:34:00,52.5,-7.1,27.08,WNW,295,4.0,4.0,8,0.00,,---,0.24,VWS V14.01,2013-02-13 21:34:00,
2013-02-13 16:39:00,51.8,-7.7,27.11,WSW,245,8.1,12.3,8,0.00,,---,0.24,VWS V14.01,2013-02-13 21:39:00,
2013-02-13 16:44:00,50.7,-6.1,27.11,SE,143,5.8,10.5,9,0.00,,---,0.24,VWS V14.01,2013-02-13 21:44:00,
2013-02-13 16:49:00,49.8,-6.7,27.11,SSW,195,8.7,8.7,9,0.00,,---,0.24,VWS V14.01,2013-02-13 21:49:00,
2013-02-13 16:54:00,49.1,-7.3,27.11,NW,315,7.6,8.3,9,0.00,,---,0.24,VWS V14.01,2013-02-13 21:54:00,
2013-02-13 16:59:00,48.7,-7.6,27.11,ESE,114,8.7,8.7,9,0.00,,---,0.24,VWS V14.01,2013-02-13 21:59:00,
2013-02-13 17:04:00,48.2,-8.0,27.11,WSW,253,3.1,3.6,9,0.00,,---,0.24,VWS V14.01,2013-02-13 22:04:00,
2013-02-13 17:09:00,47.8,-8.3,27.11,West,277,4.0,6.3,9,0.00,,---,0.24,VWS V14.01,2013-02-13 22:09:00,
2013-02-13 17:14:00,47.8,-8.3,27.11,ESE,111,2.7,4.0,9,0.00,,---,0.24,VWS V14.01,2013-02-13 22:14:00,
2013-02-13 17:19:00,48.0,-8.1,27.11,SSE,155,3.1,3.1,9,0.00,,---,0.24,VWS V14.01,2013-02-13 22:19:00,
2013-02-13 17:24:00,48.0,-8.1,27.11,SSW,212,8.1,8.3,9,0.00,,---,0.24,VWS V14.01,2013-02-13 22:24:00,
2013-02-13 17:29:00,47.8,-8.3,27.11,WSW,245,3.6,3.6,9,0.00,,---,0.24,VWS V14.01,2013-02-13 22:29:00,
2013-02-13 17:34:00,47.5,-8.5,27.11,WSW,245,2.7,6.3,9,0.00,,---,0.24,VWS V14.01,2013-02-13 22:34:00,
2013-02-13 17:39:00,47.3,-8.7,27.11,West,259,6.3,7.6,9,0.00,,---,0.24,VWS V14.01,2013-02-13 22:39:00,
2013-02-13 17:44:00,47.1,-8.8,27.11,North,0,3.6,4.9,9,0.00,,---,0.24,VWS V14.01,2013-02-13 22:44:00,
2013-02-13 17:49:00,46.9,-8.9,27.11,SW,230,5.4,8.1,9,0.00,,---,0.24,VWS V14.01,2013-02-13 22:49:00,
2013-02-13 17:54:00,46.8,-9.1,27.14,West,262,2.7,6.3,9,0.00,,---,0.24,VWS V14.01,2013-02-13 22:54:00,
2013-02-13 17:59:00,46.6,-9.2,27.14,SE,137,4.0,4.0,9,0.00,,---,0.24,VWS V14.01,2013-02-13 22:59:00,
2013-02-13 18:04:00,46.2,-7.4,27.14,NE,42,3.1,5.8,10,0.00,,---,0.24,VWS V14.01,2013-02-13 23:04:00,
2013-02-13 18:09:00,45.9,-7.6,27.17,West,266,5.4,5.4,10,0.00,,---,0.24,VWS V14.01,2013-02-13 23:09:00,
2013-02-13 18:14:00,45.3,-8.1,27.17,SSE,147,4.9,5.4,10,0.00,,---,0.24,VWS V14.01,2013-02-13 23:14:00,
2013-02-13 18:19:00,45.1,-8.2,27.17,North,8,3.6,7.6,10,0.00,,---,0.24,VWS V14.01,2013-02-13 23:19:00,
2013-02-13 18:24:00,44.6,-8.6,27.17,SSE,161,4.0,6.3,10,0.00,,---,0.24,VWS V14.01,2013-02-13 23:24:00,
2013-02-13 18:29:00,44.1,-9.0,27.17,WSW,255,5.8,8.1,10,0.00,,---,0.24,VWS V14.01,2013-02-13 23:29:00,
2013-02-13 18:34:00,43.7,-9.3,27.17,SE,131,8.3,8.3,10,0.00,,---,0.24,VWS V14.01,2013-02-13 23:34:00,
2013-02-13 18:39:00,43.3,-9.6,27.17,SE,146,5.8,10.1,10,0.00,,---,0.24,VWS V14.01,2013-02-13 23:39:00,
2013-02-13 18:44:00,42.8,-10.0,27.17,SSE,147,8.1,15.0,10,0.00,,---,0.24,VWS V14.01,2013-02-13 23:44:00,
2013-02-13 18:49:00,42.4,-8.4,27.17,NE,44,3.1,4.9,11,0.00,,---,0.24,VWS V14.01,2013-02-13 23:49:00,
2013-02-13 18:54:00,42.1,-8.6,27.20,SE,128,4.9,8.3,11,0.00,,---,0.24,VWS V14.01,2013-02-13 23:54:00,
2013-02-13 18:59:00,41.7,-8.9,27.20,East,90,5.4,8.3,11,0.00,,---,0.24,VWS V14.01,2013-02-13 23:59:00,
2013-02-13 19:04:00,41.5,-9.1,27.20,SE,142,10.5,10.5,11,0.00,,---,0.24,VWS V14.01,2013-02-14 00:04:00,
2013-02-13 19:09:00,41.2,-9.3,27.20,South,177,8.3,8.7,11,0.00,,---,0.24,VWS V14.01,2013-02-14 00:09:00,
2013-02-13 19:14:00,40.8,-9.6,27.20,SSW,201,4.9,9.6,11,0.00,,---,0.24,VWS V14.01,2013-02-14 00:14:00,
2013-02-13 19:19:00,40.5,-9.9,27.20,SSE,152,3.6,8.1,11,0.00,,---,0.24,VWS V14.01,2013-02-14 00:19:00,
2013-02-13 19:24:00,40.5,-9.9,27.20,WNW,292,4.9,12.8,11,0.00,,---,0.24,VWS V14.01,2013-02-14 00:24:00,
2013-02-13 19:29:00,40.3,-10.1,27.20,SSE,150,5.8,6.3,11,0.00,,---,0.24,VWS V14.01,2013-02-14 00:29:00,
2013-02-13 19:34:00,40.1,-10.2,27.20,SSE,147,8.7,10.5,11,0.00,,---,0.24,VWS V14.01,2013-02-14 00:34:00,
2013-02-13 19:39:00,39.9,-10.3,27.20,SE,142,8.3,8.3,11,0.00,,---,0.24,VWS V14.01,2013-02-14 00:39:00,
2013-02-13 19:44:00,39.7,-10.5,27.20,SE,132,8.1,16.3,11,0.00,,---,0.24,VWS V14.01,2013-02-14 00:44:00,
2013-02-13 19:49:00,39.6,-10.6,27.20,SW,216,8.3,11.0,11,0.00,,---,0.24,VWS V14.01,2013-02-14 00:49:00,
2013-02-13 19:54:00,39.4,-10.8,27.20,SSE,153,12.8,12.8,11,0.00,,---,0.24,VWS V14.01,2013-02-14 00:54:00,
2013-02-13 19:59:00,39.4,-10.8,27.20,SSW,210,8.7,8.7,11,0.00,,---,0.24,VWS V14.01,2013-02-14 00:59:00,
2013-02-13 20:04:00,39.2,-10.9,27.20,ESE,117,5.8,5.8,11,0.00,,---,0.24,VWS V14.01,2013-02-14 01:04:00,
2013-02-13 20:09:00,39.0,-11.0,27.20,East,96,5.4,6.3,11,0.00,,---,0.24,VWS V14.01,2013-02-14 01:09:00,
2013-02-13 20:14:00,38.7,-11.3,27.20,ENE,70,6.3,7.6,11,0.00,,---,0.24,VWS V14.01,2013-02-14 01:14:00,
2013-02-13 20:19:00,38.5,-11.5,27.20,ESE,105,5.8,5.8,11,0.00,,---,0.24,VWS V14.01,2013-02-14 01:19:00,
2013-02-13 20:24:00,38.5,-11.5,27.23,SE,133,7.6,7.6,11,0.00,,---,0.24,VWS V14.01,2013-02-14 01:24:00,
2013-02-13 20:29:00,38.3,-11.6,27.23,WSW,242,2.2,2.2,11,0.00,,---,0.24,VWS V14.01,2013-02-14 01:29:00,
2013-02-13 20:34:00,38.3,-11.6,27.23,North,353,2.7,2.7,11,0.00,,---,0.24,VWS V14.01,2013-02-14 01:34:00,
2013-02-13 20:39:00,38.1,-6.9,27.23,NW,311,2.2,3.6,14,0.00,,---,0.24,VWS V14.01,2013-02-14 01:39:00,
2013-02-13 20:44:00,37.9,-7.0,27.23,ENE,61,5.8,5.8,14,0.00,,---,0.24,VWS V14.01,2013-02-14 01:44:00,
2013-02-13 20:49:00,37.9,-7.0,27.23,East,81,2.7,2.7,14,0.00,,---,0.24,VWS V14.01,2013-02-14 01:49:00,
2013-02-13 20:54:00,37.9,-4.2,27.23,West,259,4.0,4.0,16,0.00,,---,0.24,VWS V14.01,2013-02-14 01:54:00,
2013-02-13 20:59:00,37.9,-4.2,27.23,SSE,164,2.7,2.7,16,0.00,,---,0.24,VWS V14.01,2013-02-14 01:59:00,
2013-02-13 21:04:00,37.9,-4.2,27.23,ESE,117,3.1,4.0,16,0.00,,---,0.24,VWS V14.01,2013-02-14 02:04:00,
2013-02-13 21:09:00,37.9,-0.6,27.23,SSE,157,4.0,5.4,19,0.00,,---,0.24,VWS V14.01,2013-02-14 02:09:00,
2013-02-13 21:14:00,37.9,-4.2,27.23,SE,128,5.8,7.6,16,0.00,,---,0.24,VWS V14.01,2013-02-14 02:14:00,
2013-02-13 21:19:00,37.8,-4.4,27.23,SE,146,7.6,7.6,16,0.00,,---,0.24,VWS V14.01,2013-02-14 02:19:00,
2013-02-13 21:24:00,37.6,-4.5,27.23,ESE,103,4.0,4.0,16,0.00,,---,0.24,VWS V14.01,2013-02-14 02:24:00,
2013-02-13 21:29:00,37.2,-3.6,27.23,East,101,3.6,3.6,17,0.00,,---,0.24,VWS V14.01,2013-02-14 02:29:00,
2013-02-13 21:34:00,37.0,-3.7,27.23,East,97,3.1,3.1,17,0.00,,---,0.24,VWS V14.01,2013-02-14 02:34:00,
2013-02-13 21:39:00,36.7,-4.0,27.26,ENE,74,2.7,2.7,17,0.00,,---,0.24,VWS V14.01,2013-02-14 02:39:00,
2013-02-13 21:44:00,36.7,-1.7,27.26,East,98,0.0,0.0,19,0.00,,---,0.24,VWS V14.01,2013-02-14 02:44:00,
2013-02-13 21:49:00,36.5,-1.8,27.26,SE,128,0.0,2.2,19,0.00,,---,0.24,VWS V14.01,2013-02-14 02:49:00,
2013-02-13 21:54:00,36.5,1.3,27.26,NNW,327,3.1,4.9,22,0.00,,---,0.24,VWS V14.01,2013-02-14 02:54:00,
2013-02-13 21:59:00,36.5,1.3,27.26,NE,56,2.2,3.1,22,0.00,,---,0.24,VWS V14.01,2013-02-14 02:59:00,
2013-02-13 22:04:00,36.5,3.2,27.26,SE,129,2.7,4.0,24,0.00,,---,0.24,VWS V14.01,2013-02-14 03:04:00,
2013-02-13 22:09:00,36.3,3.0,27.26,SE,132,0.0,2.2,24,0.00,,---,0.24,VWS V14.01,2013-02-14 03:09:00,
2013-02-13 22:14:00,36.1,2.8,27.26,SE,143,3.1,4.0,24,0.00,,---,0.24,VWS V14.01,2013-02-14 03:14:00,
2013-02-13 22:19:00,36.0,2.7,27.26,ESE,118,2.2,2.7,24,0.00,,---,0.24,VWS V14.01,2013-02-14 03:19:00,
2013-02-13 22:24:00,35.8,5.1,27.26,SE,134,0.0,2.7,27,0.00,,---,0.24,VWS V14.01,2013-02-14 03:24:00,
2013-02-13 22:29:00,35.6,6.5,27.26,ESE,105,0.0,0.0,29,0.00,,---,0.24,VWS V14.01,2013-02-14 03:29:00,
2013-02-13 22:34:00,35.6,6.5,27.26,SE,142,3.6,3.6,29,0.00,,---,0.24,VWS V14.01,2013-02-14 03:34:00,
2013-02-13 22:39:00,35.6,6.5,27.26,East,85,8.1,8.1,29,0.00,,---,0.24,VWS V14.01,2013-02-14 03:39:00,
2013-02-13 22:44:00,35.6,6.5,27.26,East,91,0.0,0.0,29,0.00,,---,0.24,VWS V14.01,2013-02-14 03:44:00,
2013-02-13 22:49:00,35.4,7.1,27.26,WNW,295,3.6,3.6,30,0.00,,---,0.24,VWS V14.01,2013-02-14 03:49:00,
2013-02-13 22:54:00,35.2,6.9,27.26,SE,131,5.4,5.4,30,0.00,,---,0.24,VWS V14.01,2013-02-14 03:54:00,
2013-02-13 22:59:00,35.2,6.9,27.26,ESE,121,5.4,5.4,30,0.00,,---,0.24,VWS V14.01,2013-02-14 03:59:00,
2013-02-13 23:04:00,35.1,6.8,27.26,WNW,283,0.0,3.1,30,0.00,,---,0.24,VWS V14.01,2013-02-14 04:04:00,
2013-02-13 23:09:00,35.1,6.8,27.29,NNE,16,3.1,3.1,30,0.00,,---,0.24,VWS V14.01,2013-02-14 04:09:00,
2013-02-13 23:14:00,34.9,7.3,27.29,NE,47,3.6,3.6,31,0.00,,---,0.24,VWS V14.01,2013-02-14 04:14:00,
2013-02-13 23:19:00,34.7,7.2,27.29,NNW,334,3.1,3.1,31,0.00,,---,0.24,VWS V14.01,2013-02-14 04:19:00,
2013-02-13 23:24:00,34.7,7.2,27.29,ESE,105,5.4,6.3,31,0.00,,---,0.24,VWS V14.01,2013-02-14 04:24:00,
2013-02-13 23:29:00,34.7,7.2,27.29,NE,48,3.1,3.1,31,0.00,,---,0.24,VWS V14.01,2013-02-14 04:29:00,
2013-02-13 23:34:00,34.9,7.3,27.29,ENE,61,3.6,3.6,31,0.00,,---,0.24,VWS V14.01,2013-02-14 04:34:00,
2013-02-13 23:39:00,34.9,7.3,27.29,East,88,3.1,3.1,31,0.00,,---,0.24,VWS V14.01,2013-02-14 04:39:00,
2013-02-13 23:44:00,34.9,7.3,27.29,East,95,3.1,4.9,31,0.00,,---,0.24,VWS V14.01,2013-02-14 04:44:00,
2013-02-13 23:49:00,34.7,7.2,27.29,East,80,3.1,3.1,31,0.00,,---,0.24,VWS V14.01,2013-02-14 04:49:00,
2013-02-13 23:54:00,34.5,7.0,27.29,ENE,76,2.7,6.7,31,0.00,,---,0.24,VWS V14.01,2013-02-14 04:54:00,
2013-02-13 23:59:00,34.3,6.9,27.29,ESE,116,2.7,2.7,31,0.00,,---,0.24,VWS V14.01,2013-02-14 04:59:00,